When you browse on this site, cookies collect data to enhance your experience and personalize the content and advertising you see.
Visit our Privacy Policy to learn more. By continuing to use the site, you agree to this use of cookies and data.
  • In Romania
  • List of Countries
  • For 7 days
  • Water Temperature
  • Satellite Maps
  • Weather Map
  • Weather Widgets
  • user-avatar
    Login

    Hourly Weather Ilme

    Today, 22 February, Friday

    Time Temperature Precipitation Wind Pressure Humidity
    00:00 -15°C° 0 mm 4 mps 763 mmHg 87%
    01:00 -15°C° 0 mm 4 mps 763 mmHg 86%
    02:00 -16°C° 0 mm 4 mps 764 mmHg 86%
    03:00 -16°C° 0 mm 4 mps 765 mmHg 85%
    04:00 -16°C° 0 mm 4 mps 765 mmHg 84%
    05:00 -16°C° 0 mm 4 mps 766 mmHg 84%
    06:00 -15°C° 0 mm 3 mps 766 mmHg 83%
    07:00 -16°C° 0 mm 3 mps 767 mmHg 82%
    08:00 -16°C° 0 mm 3 mps 767 mmHg 81%
    09:00 -15°C° 0 mm 3 mps 768 mmHg 78%
    10:00 -14°C° 0 mm 3 mps 768 mmHg 76%
    11:00 -13°C° 0 mm 3 mps 769 mmHg 73%
    12:00 -10°C° 0 mm 2 mps 769 mmHg 73%
    13:00 -10°C° 0 mm 2 mps 769 mmHg 73%
    14:00 -9°C° 0 mm 2 mps 769 mmHg 73%
    15:00 -10°C° 0 mm 2 mps 769 mmHg 77%
    16:00 -12°C° 0 mm 2 mps 769 mmHg 81%
    17:00 -13°C° 0 mm 2 mps 769 mmHg 85%
    18:00 -13°C° 0 mm 2 mps 769 mmHg 85%
    19:00 -14°C° 0 mm 2 mps 769 mmHg 86%
    20:00 -14°C° 0 mm 2 mps 769 mmHg 86%
    21:00 -14°C° 0 mm 2 mps 768 mmHg 83%
    22:00 -14°C° 0 mm 3 mps 767 mmHg 80%
    23:00 -13°C° 0 mm 3 mps 767 mmHg 78%

    Tomorrow, 23 February, Saturday

    Time Temperature Precipitation Wind Pressure Humidity
    00:00 -12°C° 0 mm 3 mps 766 mmHg 75%
    01:00 -11°C° 0 mm 4 mps 766 mmHg 73%
    02:00 -10°C° 0 mm 4 mps 765 mmHg 70%
    03:00 -11°C° 0.4 mm 5 mps 764 mmHg 77%
    04:00 -10°C° 0.4 mm 5 mps 763 mmHg 84%
    05:00 -8°C° 0.4 mm 5 mps 762 mmHg 90%
    06:00 -7°C° 0.4 mm 5 mps 761 mmHg 90%
    07:00 -6°C° 0.4 mm 5 mps 760 mmHg 90%
    08:00 -5°C° 0.4 mm 5 mps 759 mmHg 90%
    09:00 -4°C° 0.1 mm 5 mps 759 mmHg 90%
    10:00 -2°C° 0.1 mm 5 mps 759 mmHg 91%
    11:00 -1°C° 0.1 mm 5 mps 758 mmHg 91%
    12:00 0°C° 0 mm 5 mps 758 mmHg 92%
    13:00 0°C° 0 mm 5 mps 758 mmHg 93%
    14:00 0°C° 0 mm 5 mps 757 mmHg 94%
    15:00 0°C° 0 mm 4 mps 757 mmHg 94%
    16:00 0°C° 0 mm 4 mps 757 mmHg 95%
    17:00 0°C° 0 mm 4 mps 757 mmHg 95%
    18:00 0°C° 0 mm 4 mps 757 mmHg 95%
    19:00 0°C° 0 mm 4 mps 757 mmHg 95%
    20:00 0°C° 0 mm 4 mps 757 mmHg 95%
    21:00 +1°C° 0 mm 3 mps 758 mmHg 95%
    22:00 +1°C° 0 mm 3 mps 758 mmHg 95%
    23:00 +1°C° 0 mm 3 mps 758 mmHg 95%

    Day after tomorrow, 24 February, Sunday

    Time Temperature Precipitation Wind Pressure Humidity
    00:00 0°C° 0 mm 3 mps 758 mmHg 95%
    01:00 -1°C° 0 mm 3 mps 758 mmHg 95%
    02:00 -2°C° 0 mm 2 mps 758 mmHg 95%
    03:00 -2°C° 0 mm 2 mps 758 mmHg 95%
    04:00 -2°C° 0 mm 3 mps 758 mmHg 96%
    05:00 -2°C° 0 mm 3 mps 758 mmHg 96%
    06:00 -1°C° 0 mm 3 mps 758 mmHg 97%
    07:00 -1°C° 0 mm 3 mps 758 mmHg 97%
    08:00 +1°C° 0 mm 2 mps 758 mmHg 98%
    09:00 +1°C° 0 mm 2 mps 758 mmHg 98%
    10:00 +1°C° 0 mm 2 mps 757 mmHg 98%
    11:00 +1°C° 0 mm 2 mps 757 mmHg 98%
    12:00 +2°C° 0.1 mm 2 mps 757 mmHg 98%
    13:00 +1°C° 0.1 mm 3 mps 756 mmHg 97%
    14:00 +1°C° 0.1 mm 3 mps 756 mmHg 96%
    15:00 +1°C° 0 mm 3 mps 756 mmHg 96%
    16:00 0°C° 0 mm 4 mps 755 mmHg 96%
    17:00 0°C° 0 mm 4 mps 755 mmHg 95%
    18:00 +1°C° 0 mm 4 mps 755 mmHg 94%
    19:00 +1°C° 0 mm 4 mps 755 mmHg 92%
    20:00 +1°C° 0 mm 5 mps 754 mmHg 90%
    21:00 +1°C° 0 mm 5 mps 754 mmHg 89%
    22:00 +1°C° 0 mm 5 mps 754 mmHg 88%
    23:00 +1°C° 0 mm 6 mps 754 mmHg 86%

    25 February, Monday

    Time Temperature Precipitation Wind Pressure Humidity
    00:00 -1°C° 0 mm 6 mps 755 mmHg 83%
    01:00 0°C° 0 mm 5 mps 755 mmHg 80%
    02:00 -1°C° 0 mm 5 mps 756 mmHg 77%
    03:00 -1°C° 0 mm 5 mps 756 mmHg 78%
    04:00 -2°C° 0 mm 5 mps 756 mmHg 78%
    05:00 -2°C° 0 mm 5 mps 757 mmHg 79%
    06:00 -2°C° 0 mm 5 mps 756 mmHg 80%
    07:00 -2°C° 0 mm 4 mps 756 mmHg 81%
    08:00 -3°C° 0 mm 4 mps 756 mmHg 82%
    09:00 -2°C° 0 mm 5 mps 756 mmHg 81%
    10:00 -1°C° 0 mm 5 mps 756 mmHg 80%
    11:00 0°C° 0 mm 5 mps 755 mmHg 79%
    12:00 0°C° 0 mm 5 mps 755 mmHg 77%
    13:00 +1°C° 0 mm 5 mps 754 mmHg 76%
    14:00 +1°C° 0 mm 5 mps 754 mmHg 75%
    15:00 +1°C° 0 mm 5 mps 754 mmHg 76%
    16:00 +1°C° 0 mm 5 mps 753 mmHg 77%
    17:00 0°C° 0 mm 4 mps 753 mmHg 78%
    18:00 0°C° 0 mm 4 mps 754 mmHg 79%
    19:00 -1°C° 0 mm 4 mps 754 mmHg 80%
    20:00 -1°C° 0 mm 4 mps 754 mmHg 81%
    21:00 -2°C° 0 mm 4 mps 754 mmHg 83%
    22:00 -2°C° 0 mm 3 mps 754 mmHg 85%
    23:00 -2°C° 0 mm 3 mps 754 mmHg 87%

    26 February, Tuesday

    Time Temperature Precipitation Wind Pressure Humidity
    00:00 -4°C° 0 mm 3 mps 754 mmHg 89%
    01:00 -3°C° 0 mm 2 mps 754 mmHg 91%
    02:00 -3°C° 0 mm 2 mps 754 mmHg 92%
    03:00 -4°C° 0 mm 2 mps 753 mmHg 93%
    04:00 -4°C° 0 mm 2 mps 753 mmHg 94%
    05:00 -4°C° 0 mm 2 mps 752 mmHg 94%
    06:00 -3°C° 0.5 mm 2 mps 751 mmHg 95%
    07:00 -2°C° 0.5 mm 3 mps 750 mmHg 95%
    08:00 -1°C° 0.5 mm 3 mps 750 mmHg 96%
    09:00 -1°C° 0.5 mm 4 mps 749 mmHg 91%
    10:00 0°C° 0.5 mm 5 mps 749 mmHg 86%
    11:00 +1°C° 0.5 mm 5 mps 749 mmHg 81%
    12:00 +1°C° 0 mm 5 mps 749 mmHg 78%
    13:00 +1°C° 0 mm 5 mps 749 mmHg 74%
    14:00 +1°C° 0 mm 5 mps 750 mmHg 71%
    15:00 +1°C° 0 mm 5 mps 750 mmHg 73%
    16:00 0°C° 0 mm 4 mps 750 mmHg 75%
    17:00 -1°C° 0 mm 4 mps 751 mmHg 77%
    18:00 -1°C° 0 mm 4 mps 751 mmHg 79%
    19:00 -2°C° 0 mm 4 mps 752 mmHg 82%
    20:00 -1°C° 0 mm 3 mps 752 mmHg 84%
    21:00 -2°C° 0 mm 4 mps 753 mmHg 86%
    22:00 -2°C° 0 mm 4 mps 753 mmHg 87%
    23:00 -2°C° 0 mm 4 mps 753 mmHg 89%

    27 February, Wednesday

    Time Temperature Precipitation Wind Pressure Humidity
    00:00 -3°C° 0 mm 4 mps 754 mmHg 87%
    01:00 -3°C° 0 mm 4 mps 754 mmHg 85%
    02:00 -4°C° 0 mm 4 mps 754 mmHg 83%
    03:00 -4°C° 0 mm 3 mps 754 mmHg 85%
    04:00 -4°C° 0 mm 3 mps 754 mmHg 87%
    05:00 -5°C° 0 mm 3 mps 754 mmHg 89%
    06:00 -4°C° 0 mm 2 mps 754 mmHg 89%
    07:00 -4°C° 0 mm 2 mps 754 mmHg 90%
    08:00 -4°C° 0 mm 2 mps 753 mmHg 90%
    09:00 -4°C° 0 mm 3 mps 752 mmHg 84%
    10:00 -2°C° 0 mm 3 mps 751 mmHg 79%
    11:00 -2°C° 0 mm 4 mps 750 mmHg 74%
    12:00 -1°C° 0 mm 5 mps 749 mmHg 75%
    13:00 0°C° 0 mm 5 mps 747 mmHg 77%
    14:00 -1°C° 0 mm 6 mps 746 mmHg 78%
    15:00 0°C° 0 mm 5 mps 745 mmHg 81%
    16:00 +1°C° 0 mm 5 mps 744 mmHg 84%
    17:00 +1°C° 0 mm 5 mps 743 mmHg 88%
    18:00 +1°C° 0 mm 5 mps 741 mmHg 89%
    19:00 0°C° 0 mm 5 mps 740 mmHg 89%
    20:00 0°C° 0 mm 4 mps 739 mmHg 90%
    21:00 0°C° 0 mm 5 mps 738 mmHg 89%
    22:00 0°C° 0 mm 5 mps 737 mmHg 88%
    23:00 0°C° 0 mm 5 mps 736 mmHg 87%
    Show more